FW5669 Weather Reports


time (UTC)temp
C
wind
direction
speed
KPH
gust
KPH
rain 1hr
cm
rain 24hr
cm
rain mn
cm
humidity
%
barometer
mb
20260510200058 25 184 1.6 6.4 0.00 0.00 0.00 61 1015.3
20260510194601 25 245 1.6 4.8 0.00 0.00 0.00 63 1015.2
20260510193100 23 249 1.6 6.4 0.00 0.00 0.00 62 1015.3
20260510191605 23 133 1.6 4.8 0.00 0.00 0.00 65 1015.2
20260510190104 23 248 1.6 6.4 0.00 0.00 0.00 64 1015.3
20260510184602 24 151 1.6 6.4 0.00 0.00 0.00 65 1015.3
20260510183059 23 239 1.6 6.4 0.00 0.00 0.00 67 1015.3
20260510181609 23 93 1.6 6.4 0.00 0.00 0.00 65 1015.0
20260510180114 23 252 1.6 4.8 0.00 0.00 0.00 67 1015.0
20260510174558 22 162 1.6 4.8 0.00 0.00 0.00 66 1015.0
20260510173058 22 157 1.6 6.4 0.00 0.00 0.00 69 1015.0
20260510171602 22 207 1.6 6.4 0.00 0.00 0.00 69 1014.8
20260510170123 23 248 3.2 6.4 0.00 0.00 0.00 65 1014.7
20260510164606 25 218 1.6 4.8 0.00 0.00 0.00 61 1014.5
20260510163059 25 145 1.6 4.8 0.00 0.00 0.00 54 1014.4
20260510161559 25 135 0.0 3.2 0.00 0.00 0.00 57 1014.4
20260510160058 24 349 1.6 6.4 0.00 0.00 0.00 56 1014.4
20260510154558 23 165 0.0 1.6 0.00 0.00 0.00 62 1014.4
20260510153058 23 46 0.0 3.2 0.00 0.00 0.00 66 1014.3
20260510151559 22 70 0.0 4.8 0.00 0.00 0.00 67 1014.3
20260510144558 20 29 0.0 6.4 0.00 0.00 0.00 74 1014.3
20260510143059 18 39 1.6 4.8 0.00 0.00 0.00 77 1014.2
20260510141502 17 332 0.0 3.2 0.00 0.00 0.00 82 1014.1
20260510140058 16 6 0.0 3.2 0.00 0.00 0.00 83 1014.0
20260510134559 16 6 0.0 1.6 0.00 0.00 0.00 84 1013.7
20260510133100 16 39 0.0 1.6 0.00 0.00 0.00 85 1013.7
20260510131600 16 33 0.0 3.2 0.00 0.00 0.00 85 1013.5
20260510124611 16 346 0.0 3.2 0.00 0.00 0.00 85 1013.6
20260510123101 16 66 0.0 1.6 0.00 0.00 0.00 86 1013.6
20260510121558 16 29 0.0 0.0 0.00 0.00 0.00 86 1013.6
20260510120058 16 29 0.0 0.0 0.00 0.00 0.00 85 1013.4
20260510114604 16 29 0.0 1.6 0.00 0.00 0.00 84 1013.6
20260510113058 16 22 0.0 1.6 0.00 0.00 0.00 84 1013.5
20260510111558 16 354 0.0 1.6 0.00 0.00 0.00 85 1013.5
20260510110057 16 11 0.0 1.6 0.00 0.00 0.00 85 1013.6
20260510104559 16 88 0.0 3.2 0.00 0.00 0.00 85 1013.6
20260510103058 16 31 0.0 3.2 0.00 0.00 0.00 85 1013.5
20260510101557 16 16 0.0 4.8 0.00 0.00 0.00 85 1013.6
20260510094558 16 64 0.0 6.4 0.00 0.00 0.00 85 1013.5
20260510093102 16 335 0.0 3.2 0.00 0.00 0.00 85 1013.5
20260510091558 16 3 0.0 0.0 0.00 0.00 0.00 86 1013.5
20260510090059 16 23 0.0 1.6 0.00 0.00 0.00 86 1013.5
20260510084558 16 35 0.0 1.6 0.00 0.00 0.00 86 1013.4
20260510083107 16 29 0.0 0.0 0.00 0.00 0.00 87 1013.6
20260510081601 16 63 0.0 1.6 0.00 0.00 0.00 87 1013.6
20260510080105 16 19 0.0 0.0 0.00 0.00 0.00 87 1013.9
20260510074559 16 19 0.0 0.0 0.00 0.00 0.00 86 1014.0
20260510073107 16 19 0.0 1.6 0.00 0.00 0.00 87 1014.1
20260510071559 16 16 0.0 1.6 0.00 0.00 0.00 87 1014.1
20260510070059 16 16 0.0 1.6 0.00 0.00 0.00 86 1014.0
20260510070003 16 16 0.0 1.6 0.00 0.00 0.00 86 1014.0
20260510064601 16 16 0.0 1.6 0.00 0.00 0.00 85 1014.0
20260510063058 17 16 0.0 1.6 0.00 0.00 0.00 84 1014.0
20260510061558 17 8 0.0 0.0 0.00 0.00 0.00 83 1014.1
20260510060059 17 8 0.0 0.0 0.00 0.00 0.00 82 1013.9
20260510054600 18 8 0.0 1.6 0.00 0.00 0.00 80 1014.0
20260510053059 18 57 0.0 1.6 0.00 0.00 0.00 80 1014.0
20260510051603 18 71 0.0 3.2 0.00 0.00 0.00 79 1014.1
20260510050059 18 60 0.0 1.6 0.00 0.00 0.00 78 1014.0
20260510044558 19 25 0.0 3.2 0.00 0.00 0.00 77 1013.9
20260510043059 20 50 0.0 3.2 0.00 0.00 0.00 76 1013.9
20260510041559 20 7 0.0 1.6 0.00 0.00 0.00 73 1013.8
20260510040100 20 7 0.0 1.6 0.00 0.00 0.00 73 1013.5
20260510034600 21 215 0.0 1.6 0.00 0.00 0.00 72 1013.4
20260510033134 21 215 0.0 1.6 0.00 0.00 0.00 69 1013.3
20260510031559 22 215 0.0 1.6 0.00 0.00 0.00 64 1013.1
20260510030059 23 215 0.0 0.0 0.00 0.00 0.00 60 1013.1
20260510024606 25 215 0.0 0.0 0.00 0.00 0.00 57 1013.0
20260510023059 25 215 0.0 1.6 0.00 0.00 0.00 56 1012.9
20260510021558 25 144 0.0 1.6 0.00 0.00 0.00 54 1012.9
20260510020059 26 212 0.0 3.2 0.00 0.00 0.00 51 1012.9
20260510020002 26 212 0.0 3.2 0.00 0.00 0.00 52 1012.9
20260510014602 26 189 1.6 3.2 0.00 0.00 0.00 51 1012.8
20260510013000 26 196 0.0 3.2 0.00 0.00 0.00 54 1012.9
20260510011501 26 143 0.0 3.2 0.00 0.00 0.00 53 1012.9
20260510010002 27 179 0.0 3.2 0.00 0.00 0.00 50 1013.0
20260510004600 27 158 0.0 3.2 0.00 0.00 0.00 52 1013.1
20260510004501 27 158 0.0 3.2 0.00 0.00 0.00 51 1013.1
20260510003107 27 149 0.0 4.8 0.00 0.00 0.00 54 1013.1
20260510003002 27 177 0.0 4.8 0.00 0.00 0.00 53 1013.1
20260510001502 27 158 0.0 4.8 0.00 0.00 0.00 53 1013.2
20260510000006 27 132 1.6 4.8 0.00 0.00 0.00 50 1013.4
20260509234502 27 158 1.6 4.8 0.00 0.00 0.00 50 1013.5
20260509233003 26 273 1.6 8.0 0.00 0.00 0.00 53 1013.5
20260509231500 27 133 1.6 4.8 0.00 0.00 0.00 54 1013.6
20260509230002 27 150 1.6 6.4 0.00 0.00 0.00 53 1013.9
20260509224603 27 253 1.6 6.4 0.00 0.00 0.00 54 1013.8
20260509223003 27 203 1.6 6.4 0.00 0.00 0.00 52 1013.9
20260509221502 27 316 1.6 4.8 0.00 0.00 0.00 54 1014.1
20260509220001 27 233 0.0 8.0 0.00 0.00 0.00 53 1014.1
20260509214600 26 235 1.6 9.7 0.00 0.00 0.00 54 1014.4
20260509213101 26 44 1.6 6.4 0.00 0.00 0.00 52 1015.0
20260509211600 26 273 1.6 4.8 0.00 0.00 0.00 55 1014.7
20260509210105 26 177 1.6 4.8 0.00 0.00 0.00 56 1014.7
20260509204608 26 260 1.6 4.8 0.00 0.00 0.00 57 1014.8
20260509203115 26 178 1.6 4.8 0.00 0.00 0.00 58 1014.7
20260509201600 25 158 1.6 4.8 0.00 0.00 0.00 57 1014.9